• In Deutschland
  • Länderverzeichnis
  • Für 7 Tage
  • Wassertemperatur
  • Satellitenkarten
  • Wetterkarte
  • Widgets
  • user-avatar
    Anmelden

    Stündliche Wetter Stepanakert

    Heute, 25 September, Montag

    Zeit Temperatur Niederschläge Wind Luftdruck Luftfeuchtigkeit
    00:00 +19°C° 0,1 mm 1 m/S 696 mmHg 87%
    01:00 +19°C° 0 mm 1 m/S 696 mmHg 87%
    02:00 +18°C° 0 mm 1 m/S 696 mmHg 87%
    03:00 +18°C° 0 mm 1 m/S 696 mmHg 90%
    04:00 +18°C° 0,1 mm 1 m/S 696 mmHg 89%
    05:00 +18°C° 0,1 mm 1 m/S 696 mmHg 88%
    06:00 +18°C° 0,1 mm 1 m/S 696 mmHg 88%
    07:00 +19°C° 0,1 mm 1 m/S 696 mmHg 79%
    08:00 +21°C° 0,1 mm 1 m/S 696 mmHg 71%
    09:00 +23°C° 0 mm 2 m/S 697 mmHg 63%
    10:00 +23°C° 0,1 mm 2 m/S 697 mmHg 59%
    11:00 +24°C° 0,1 mm 2 m/S 697 mmHg 55%
    12:00 +25°C° 0,1 mm 3 m/S 697 mmHg 52%
    13:00 +25°C° 0,3 mm 3 m/S 696 mmHg 51%
    14:00 +25°C° 0,3 mm 3 m/S 696 mmHg 51%
    15:00 +25°C° 0,3 mm 3 m/S 696 mmHg 51%
    16:00 +24°C° 0,3 mm 3 m/S 696 mmHg 56%
    17:00 +22°C° 0,3 mm 3 m/S 696 mmHg 61%
    18:00 +21°C° 0,3 mm 3 m/S 696 mmHg 66%
    19:00 +20°C° 0,4 mm 3 m/S 696 mmHg 68%
    20:00 +19°C° 0,4 mm 3 m/S 696 mmHg 70%
    21:00 +19°C° 0,4 mm 3 m/S 696 mmHg 73%
    22:00 +18°C° 0 mm 2 m/S 696 mmHg 73%
    23:00 +18°C° 0 mm 2 m/S 696 mmHg 74%

    Morgen, 26 September, Dienstag

    Zeit Temperatur Niederschläge Wind Luftdruck Luftfeuchtigkeit
    00:00 +17°C° 0 mm 2 m/S 696 mmHg 74%
    01:00 +17°C° 0 mm 2 m/S 696 mmHg 74%
    02:00 +18°C° 0 mm 1 m/S 696 mmHg 75%
    03:00 +16°C° 0 mm 1 m/S 695 mmHg 75%
    04:00 +16°C° 0 mm 1 m/S 695 mmHg 76%
    05:00 +16°C° 0 mm 1 m/S 695 mmHg 76%
    06:00 +15°C° 0 mm 1 m/S 695 mmHg 77%
    07:00 +17°C° 0 mm 2 m/S 695 mmHg 70%
    08:00 +19°C° 0 mm 2 m/S 696 mmHg 63%
    09:00 +20°C° 0 mm 3 m/S 696 mmHg 57%
    10:00 +21°C° 0 mm 3 m/S 696 mmHg 53%
    11:00 +22°C° 0 mm 3 m/S 695 mmHg 50%
    12:00 +23°C° 0 mm 4 m/S 695 mmHg 46%
    13:00 +23°C° 0 mm 4 m/S 695 mmHg 47%
    14:00 +23°C° 0 mm 4 m/S 695 mmHg 49%
    15:00 +23°C° 0 mm 4 m/S 694 mmHg 50%
    16:00 +22°C° 0 mm 4 m/S 694 mmHg 57%
    17:00 +20°C° 0 mm 4 m/S 694 mmHg 64%
    18:00 +19°C° 0 mm 4 m/S 694 mmHg 71%
    19:00 +18°C° 0 mm 3 m/S 694 mmHg 74%
    20:00 +18°C° 0 mm 3 m/S 694 mmHg 77%
    21:00 +17°C° 0 mm 3 m/S 694 mmHg 80%
    22:00 +17°C° 0 mm 3 m/S 694 mmHg 80%
    23:00 +16°C° 0 mm 3 m/S 694 mmHg 80%

    übermorgen, 27 September, Mittwoch

    Zeit Temperatur Niederschläge Wind Luftdruck Luftfeuchtigkeit
    00:00 +16°C° 0 mm 3 m/S 694 mmHg 81%
    01:00 +16°C° 0,1 mm 3 m/S 694 mmHg 81%
    02:00 +16°C° 0,1 mm 2 m/S 694 mmHg 81%
    03:00 +15°C° 0,1 mm 2 m/S 694 mmHg 81%
    04:00 +15°C° 0 mm 2 m/S 694 mmHg 81%
    05:00 +15°C° 0 mm 2 m/S 693 mmHg 81%
    06:00 +15°C° 0 mm 2 m/S 693 mmHg 81%
    07:00 +16°C° 0 mm 2 m/S 694 mmHg 76%
    08:00 +17°C° 0 mm 3 m/S 694 mmHg 72%
    09:00 +18°C° 0 mm 3 m/S 694 mmHg 67%
    10:00 +18°C° 0 mm 3 m/S 694 mmHg 65%
    11:00 +19°C° 0 mm 4 m/S 694 mmHg 63%
    12:00 +19°C° 0 mm 4 m/S 694 mmHg 61%
    13:00 +19°C° 0 mm 4 m/S 693 mmHg 64%
    14:00 +18°C° 0 mm 3 m/S 693 mmHg 66%
    15:00 +18°C° 0 mm 3 m/S 693 mmHg 69%
    16:00 +17°C° 0,1 mm 3 m/S 693 mmHg 73%
    17:00 +16°C° 0,1 mm 3 m/S 693 mmHg 77%
    18:00 +14°C° 0,1 mm 3 m/S 693 mmHg 81%
    19:00 +14°C° 0,1 mm 3 m/S 693 mmHg 81%
    20:00 +15°C° 0,1 mm 2 m/S 693 mmHg 82%
    21:00 +15°C° 0,1 mm 2 m/S 694 mmHg 82%
    22:00 +14°C° 0,1 mm 2 m/S 694 mmHg 84%
    23:00 +14°C° 0,1 mm 2 m/S 694 mmHg 85%

    28 September, Donnerstag

    Zeit Temperatur Niederschläge Wind Luftdruck Luftfeuchtigkeit
    00:00 +14°C° 0,1 mm 2 m/S 694 mmHg 87%
    01:00 +14°C° 0,1 mm 2 m/S 694 mmHg 88%
    02:00 +13°C° 0,1 mm 2 m/S 694 mmHg 89%
    03:00 +13°C° 0,1 mm 2 m/S 694 mmHg 89%
    04:00 +13°C° 0,1 mm 2 m/S 694 mmHg 90%
    05:00 +12°C° 0,1 mm 3 m/S 694 mmHg 90%
    06:00 +12°C° 0,1 mm 3 m/S 694 mmHg 90%
    07:00 +13°C° 0,1 mm 3 m/S 694 mmHg 87%
    08:00 +13°C° 0,1 mm 3 m/S 695 mmHg 84%
    09:00 +13°C° 0,1 mm 4 m/S 695 mmHg 80%
    10:00 +14°C° 0,1 mm 4 m/S 695 mmHg 79%
    11:00 +14°C° 0,1 mm 4 m/S 695 mmHg 78%
    12:00 +14°C° 0,1 mm 4 m/S 695 mmHg 76%
    13:00 +14°C° 0,1 mm 3 m/S 695 mmHg 78%
    14:00 +14°C° 0,1 mm 3 m/S 695 mmHg 79%
    15:00 +13°C° 0,1 mm 3 m/S 695 mmHg 81%
    16:00 +13°C° 0,1 mm 3 m/S 695 mmHg 82%
    17:00 +12°C° 0,1 mm 3 m/S 695 mmHg 84%
    18:00 +12°C° 0,1 mm 3 m/S 696 mmHg 85%
    19:00 +12°C° 0,1 mm 3 m/S 696 mmHg 85%
    20:00 +12°C° 0,1 mm 2 m/S 696 mmHg 85%
    21:00 +12°C° 0,1 mm 2 m/S 697 mmHg 85%
    22:00 +12°C° 0 mm 2 m/S 696 mmHg 85%
    23:00 +12°C° 0 mm 2 m/S 696 mmHg 86%

    29 September, Freitag

    Zeit Temperatur Niederschläge Wind Luftdruck Luftfeuchtigkeit
    00:00 +12°C° 0 mm 2 m/S 696 mmHg 86%
    01:00 +12°C° 0 mm 2 m/S 696 mmHg 86%
    02:00 +12°C° 0 mm 2 m/S 696 mmHg 87%
    03:00 +12°C° 0 mm 1 m/S 696 mmHg 87%
    04:00 +11°C° 0 mm 1 m/S 696 mmHg 88%
    05:00 +11°C° 0 mm 1 m/S 696 mmHg 89%
    06:00 +11°C° 0 mm 1 m/S 696 mmHg 89%
    07:00 +12°C° 0 mm 1 m/S 696 mmHg 84%
    08:00 +13°C° 0 mm 2 m/S 696 mmHg 78%
    09:00 +15°C° 0 mm 2 m/S 696 mmHg 72%
    10:00 +16°C° 0 mm 2 m/S 696 mmHg 67%
    11:00 +17°C° 0 mm 3 m/S 696 mmHg 63%
    12:00 +18°C° 0 mm 3 m/S 696 mmHg 58%
    13:00 +18°C° 0 mm 3 m/S 695 mmHg 58%
    14:00 +18°C° 0 mm 3 m/S 695 mmHg 58%
    15:00 +18°C° 0 mm 3 m/S 694 mmHg 57%
    16:00 +17°C° 0 mm 3 m/S 694 mmHg 63%
    17:00 +16°C° 0 mm 2 m/S 694 mmHg 68%
    18:00 +15°C° 0 mm 2 m/S 694 mmHg 74%
    19:00 +15°C° 0 mm 2 m/S 694 mmHg 76%
    20:00 +15°C° 0 mm 2 m/S 694 mmHg 77%
    21:00 +14°C° 0 mm 2 m/S 694 mmHg 79%
    22:00 +14°C° 0 mm 2 m/S 694 mmHg 80%
    23:00 +14°C° 0 mm 1 m/S 693 mmHg 81%

    30 September, Samstag

    Zeit Temperatur Niederschläge Wind Luftdruck Luftfeuchtigkeit
    00:00 +14°C° 0 mm 1 m/S 693 mmHg 82%
    01:00 +14°C° 0 mm 1 m/S 693 mmHg 82%
    02:00 +13°C° 0 mm 1 m/S 693 mmHg 83%
    03:00 +13°C° 0 mm 1 m/S 692 mmHg 83%
    04:00 +13°C° 0 mm 1 m/S 692 mmHg 83%
    05:00 +13°C° 0 mm 1 m/S 692 mmHg 83%
    06:00 +13°C° 0 mm 1 m/S 692 mmHg 83%
    07:00 +14°C° 0 mm 1 m/S 692 mmHg 77%
    08:00 +16°C° 0 mm 2 m/S 692 mmHg 71%
    09:00 +17°C° 0 mm 2 m/S 692 mmHg 64%
    10:00 +18°C° 0,1 mm 3 m/S 692 mmHg 61%
    11:00 +19°C° 0,1 mm 3 m/S 692 mmHg 58%
    12:00 +20°C° 0,1 mm 3 m/S 691 mmHg 55%
    13:00 +20°C° 0,1 mm 3 m/S 691 mmHg 56%
    14:00 +20°C° 0,1 mm 3 m/S 691 mmHg 57%
    15:00 +20°C° 0,1 mm 3 m/S 690 mmHg 58%
    16:00 +19°C° 0 mm 2 m/S 690 mmHg 63%
    17:00 +18°C° 0 mm 2 m/S 690 mmHg 69%
    18:00 +18°C° 0 mm 1 m/S 690 mmHg 74%
    19:00 +16°C° 0 mm 1 m/S 690 mmHg 75%
    20:00 +16°C° 0 mm 1 m/S 690 mmHg 76%
    21:00 +16°C° 0 mm 1 m/S 691 mmHg 77%
    22:00 +15°C° 0 mm 1 m/S 691 mmHg 76%
    23:00 +15°C° 0 mm 1 m/S 691 mmHg 76%
    Mehr zeigen